This demonstration page uses our WeatherBlox Daily Observations layout. Learn more.

Left ArrowRight Arrow

41.55636, -103.73856

Hourly Observations for December 24, 2020

Temp ( °F °C ) Dew Point ( °F °C ) Humidity (%) Winds ( mph kmh ) Pressure ( in mb ) Visibility ( mi km ) Precip ( " mm )
12:56 am 00:56 Mostly Cloudy 17 -8.1 7 -14 63 63 WNW 16 26 30.26 1025 10 16 0.00 0.00
1:56 am 01:56 Clear 22 -5.3 5 -15.2 46 46 WNW 21 33 30.25 1024 10 16 0.00 0.00
2:56 am 02:56 Mostly Clear 24 -4.3 4 -15.5 42 42 WNW 23 37 30.22 1024 10 16 0.00 0.00
3:56 am 03:56 Mostly Cloudy 26 -3.5 6 -14.6 42 42 WNW 20 31 30.22 1023 10 16 0.00 0.00
4:56 am 04:56 Mostly Cloudy 29 -1.9 5 -15.2 36 36 WNW 31 50 30.20 1023 10 16 0.00 0.00
5:56 am 05:56 Cloudy 29 -1.7 6 -14.3 38 38 WNW 26 43 30.23 1024 10 16 0.00 0.00
6:56 am 06:56 Mostly Cloudy 30 -1.1 6 -14.2 37 37 NW 26 43 30.24 1024 10 16 0.00 0.00
7:56 am 07:56 Mostly Cloudy 30 -1 7 -13.8 38 38 WNW 25 41 30.27 1025 10 16 0.00 0.00
8:56 am 08:56 Mostly Cloudy 32 0.2 7 -13.7 35 35 NW 26 43 30.29 1026 10 16 0.00 0.00
9:56 am 09:56 Mostly Cloudy 37 2.5 7 -13.9 29 29 NW 32 52 30.28 1025 10 16 0.00 0.00
10:56 am 10:56 Partly Cloudy 39 4 7 -13.8 26 26 NW 36 57 30.28 1025 10 16 0.00 0.00
11:56 am 11:56 Mostly Cloudy 41 5.1 8 -13.4 25 25 NW 36 57 30.25 1025 10 16 0.00 0.00
12:56 pm 12:56 Sunny 43 6.2 9 -12.9 24 24 NW 39 63 30.21 1023 10 16 0.00 0.00
1:56 pm 13:56 Partly Cloudy 44 6.7 10 -12.3 25 25 NW 33 54 30.17 1022 10 16 0.00 0.00
2:56 pm 14:56 Sunny 44 6.9 11 -11.7 25 25 NW 26 43 30.20 1023 10 16 0.00 0.00
3:56 pm 15:56 Sunny 42 5.6 12 -11.2 29 29 NW 28 44 30.22 1023 10 16 0.00 0.00
4:56 pm 16:56 Clear 37 2.9 12 -10.9 36 36 NW 20 31 30.22 1023 10 16 0.00 0.00
5:56 pm 17:56 Clear 35 1.4 12 -11 40 40 W 14 22 30.26 1025 10 16 0.00 0.00
6:56 pm 18:56 Clear 35 1.4 11 -11.9 37 37 WNW 17 28 30.27 1025 10 16 0.00 0.00
7:56 pm 19:56 Clear 33 0.4 11 -11.6 41 41 WNW 15 24 30.29 1026 10 16 0.00 0.00
8:56 pm 20:56 Clear 31 -0.6 11 -11.9 43 43 W 13 20 30.28 1025 10 16 0.00 0.00
9:56 pm 21:56 Clear 33 0.5 10 -12 39 39 W 17 28 30.25 1025 10 16 0.00 0.00
10:56 pm 22:56 Clear 33 0.8 10 -12 38 38 W 16 26 30.22 1024 10 16 0.00 0.00
11:56 pm 23:56 Clear 32 0 11 -11.8 41 41 W 12 19 30.20 1023 10 16 0.00 0.00

Powered by AerisWeather